Погода в Вологде

Погода в Вологде : погода сейчас, прогноз погоды и архив. Всё, что Вы хотите узнать о погоде в Вологде!

Хотите узнать прогноз погоды в Вологде? Тогда Вам сюда: Погода в Вологде

Поиск расширенной информации на нашем сайте:

Другие новости

Новости СМИ2

Главная страница сайта

Новости сайта

03.07.2017

Напоминаем, что на нашем специализированном сайте Метеоцентр.Азия вы можете получить высокодетализированные автоматические прогнозы погоды по пунктам России, СНГ и мира в авиационном формате (включающие направление и скорость ветра, видимость, явления погоды, количество и форму облачности, нижнюю и верхнюю границу облачности).

Рекомендуем: эмалировка ванн

Погода в Вологде - сегодня

Время (UTC), дата Ветер
(°,м/с) 
Видим.   Явления Облачность Т
(°С)
Тd
(°С)
f(%) Тe
(°С)
Pmin
(гПа)
dP
(гПа)
Po
(мм)
O2
(г/м3)
Тmin Tmax R s Состояние
почвы
00 18.11.17 240 (ЮЗ) 20000 м  в посл. час снег  10/10 330 м 
[Sc]
+0.9 -0.2 92 -1  1008.3  -0.1  744  299           
03 18.11.17 230 (ЮЗ) 10 км  слаб. дождь  10/10 360 м 
[Sc]
+1.2 +0.1 92 1008.6  0.4  744  299  +0.3    0.5  равномерный
мокрый или
старый снег
100% 
06 18.11.17 230 (ЮЗ) 20000 м  {дождь}  8/8 600 м 
[Sc]
+1.5 -0.2 88 -1  1008.8  0.2  744  298           
09 18.11.17 240 (ЮЗ) 20000 м    9/9 720 м 
[Sc]
+2.1 -0.4 84 1009.9  1.1  745  298           
12 18.11.17 230 (ЮЗ) 20000 м    9/9 800 м 
[Sc]
+2 +0.1 87 +1  1010.2  0.3  746  298           
15 18.11.17 210 (ЮЗ) 10 км  слаб. дождь  10/10 720 м 
[Sc]
+1.7 -0.2 87 1010.8  0.6  746  299    +2.8  0.0     
18 18.11.17 210 (ЮЗ) 20000 м  {дождь}  10/10 870 м 
[Sc]
+1.3 -1.3 83 1011.3  0.4  746  299           
21 18.11.17 230 (ЮЗ) 3{10}  20000 м    10/10 660 м 
[Sc]
+0.9 -2.3 79 -1  1011.6  0.3  746  300           
00 19.11.17 180 (Ю) 20000 м    10/10 1080 м 
[Sc]
+0.7 -3.2 75 1011.4  -0.2  746  300           
03 19.11.17 190 (Ю) 20000 м    10/10 1300 м 
[Sc]
+0.4 -3.6 74 -2  1010.9  -0.5  746  301  +0.4    0.0  равномерный
мокрый или
старый снег
100% 
06 19.11.17 190 (Ю) 20000 м    9/9 1000 м 
[Sc]
-0.1 -3.5 78 -1  1011.5  0.5  746  301  -0.1         
09 19.11.17 170 (Ю) 20000 м    9/6 1000 м средняя 
[Sc|Ac trans]
+0.2 -3.8 74 -1  1011.8  0.4  747  301           
12 19.11.17 130 (ЮВ) 20000 м    10/10 1140 м 
[Sc]
+0.3 -3 78 -1  1010.9  -1  746  301           
15 19.11.17 120 (ЮВ) 10 км  слаб. снег  10/10 360 м 
[Sc]
-0.4 -1.5 92 -1  1010.3  -0.5  746  301    +0.5  0.3     
18 19.11.17 120 (ЮВ) 10 км  слаб. снег  10/10 270 м 
[Frnb|Ns]
-0.2 -0.8 96 -1  1009.1  1.2  745  300           
21 19.11.17 140 (ЮВ) 10 км  слаб. снег  10/10 300 м 
[Frnb|Ns]
-0.2 -0.8 96 -1  1008.6  -0.5  744  300           
00 20.11.17 130 (ЮВ) 4000 м  снег  10/10 240 м 
[Frnb|Ns]
-0.2 -0.8 96 -1  1007  -1.6  743  300           
03 20.11.17 130 (ЮВ) 4000 м  снег  10/10 240 м 
[Frnb|Ns]
-0.2 -0.8 96 -2  1005.4  -1.6  742  299  -0.4    равномерный
сухой снег
100% 
06 20.11.17 160 (Ю) 4000 м  снег  10/9 330 м средняя 
[Frnb|As op]
-0.1 -0.7 96 -1  1004.9  -0.5  741  299           
09 20.11.17 220 (ЮЗ) 20000 м  {снег}  10/10 400 м 
[Sc]
+0.8 -0.3 92 1006.8  1.9  743  298           
12 20.11.17 250 (З) 10 км  слаб. снег  10/10 270 м 
[Sc]
+0.5 -0.6 92 1008.9  2.1  744  299           
15 20.11.17 230 (ЮЗ) 20000 м  снежные кристаллы  10/10 360 м 
[Sc]
+0.2 -0.7 94 +1  1011.3  2.4  746  301    +1     
18 20.11.17 190 (Ю) 20000 м  {снег}  10/10 420 м 
[Sc]
-0.1 -1.3 92 +1  1012.1  0.7  747  301           
21 20.11.17 160 (Ю) 20000 м  местами туман поземный  1/1 1000 м 
[Sc]
-2.4 -3.2 94 -2  1013.2  748  304           
00 21.11.17 110 (В) 20000 м    9/9 1000 м 
[Sc]
-2.4 -3.1 95 -2  1013.1  -0.2  747  304           
Время (UTC), дата Ветер
(°,м/с) 
Видим.   Явления Облачность Т
(°С)
Тd
(°С)
f(%) Тe
(°С)
Pmin
(гПа)
dP
(гПа)
Po
(мм)
O2
(г/м3)
Тmin Tmax R s Состояние
почвы

Для получения пояснительной информации подведите курсор к названию столбца.

ПОГОДА в Вологде - архив

Всё, что Вы хотите узнать о погоде в Вологде - удобно и подробно!

Выберите нужную дату (начиная с 1 января 2015* года) и нажмите кнопку "Найти".
Будут отображены архивные сводки погоды по пункту Вологда, начиная с указанной даты.


Отображать данные в формате CSV (для использования в таблицах Excel)


Внимание! Наш архив погоды предназначен исключительно для личного некоммерческого использования в познавательных целях. Если Вам необходимы официальные справки о состоянии погоды (для производственных, юридических, коммерческих и т.п. целей), обращайтесь в органы Росгидромета.

*Примечание: данная дата относится к архиву по метеостанциям СССР (Россия, СНГ, Балтия).
Архив по метеостанциям Зарубежной Европы и Азии (кроме Китая) хранится 10 дней, по другим регионам земного шара (Китай, Африка, Америка, Австралия, Океания) - 1 день.

Вологда - район местоположения метеостанции


Название, широта, долгота, высота метеостанции:
Вологда (город) 59.3°ш. 39.9°д. 130 м над ур. моря [Российская Федерация]

Дополнительная информация

В oтличие oт бoльшинства пoгoдных сайтoв мы публикуем пoдрoбную метеoинфoрмацию в детальнoм прoфессиoнальнoм фoрмате.

Характеристики температуры и влажнoсти вoздуха измеряются на высoте 2 м в тени вдали oт зданий и деревьев.
Скoрoсть ветра измеряется на высoте 10 м (на урoвне рoста челoвека скoрoсть ветра ниже в 1.5-2 раза). Если метеoстанция нахoдится в гoрoде или в лесу, тo скoрoсть ветра занижена на 2-4 м/с пo сравнению с oткрытым местoм. Скoрoсть ветра над акватoриями крупных рек и oзёр, а также на вершинах хoлмoв на 2-5 м/с выше, чем в oбычных услoвиях.
Атмoсфернoе давление в разных тoчках местнoсти мoжет значительнo oтличаться oт давления на метеoстанции, в зависимoсти oт услoвий рельефа (при пoдъёме на 10 м давление пoнижается примернo на 1 мм рт.ст.).